Florala, AL

3:07 AM CST on January 22, 2017 (GMT -0600)
Florala

Weather History for K0J4 - March, 2013

Change the Weather History Date:

Saturday, March 16, 2013

  Actual Average (KCEW) Record (KCEW)
Temperature  
Mean Temperature 60 °F -  
Max Temperature 77 °F 71 °F 86 °F (1977)
Min Temperature 44 °F 50 °F 28 °F (1999)
Degree Days  
Heating Degree Days 4    
Growing Degree Days 10 (Base 50)    
Moisture  
Dew Point 47 °F    
Average Humidity 78    
Maximum Humidity 96    
Minimum Humidity 39    
Precipitation  
Precipitation 0.00 in - - ()
Sea Level Pressure  
Sea Level Pressure 30.09 in    
Wind  
Wind Speed 4 mph (SW)    
Max Wind Speed 21 mph    
Max Gust Speed 25 mph    
Visibility 6 miles    
Events Fog    
Averages and records for this station are not official NWS values.
T = Trace of Precipitation, MM = Missing Value Source: NWS Daily Summary

Daily Weather History Graph

Daily Weather History Graph

Search for Another Location

Airport or City:

Trip Planner

Search our weather history database for the weather conditions in past years. The results will help you decide how hot, cold, wet, or windy it might be!

Date:

Astronomy

Mar. 16, 2013 Rise Set
Actual Time 6:53 AM CDT 6:54 PM CDT
Civil Twilight 6:29 AM CDT 7:18 PM CDT
Nautical Twilight 6:01 AM CDT 7:46 PM CDT
Astronomical Twilight 5:33 AM CDT 8:14 PM CDT
Moon 9:42 AM CDT (3/16) 11:41 PM CDT (3/16)
Length of Visible Light 12h 48m
Length of Day
12h 00m
Waxing Crescent, 23% of the Moon is Illuminated
Mar 16
Waxing Crescent
Mar 19
First Quarter
Mar 27
Full
Apr 2
Last Quarter
Apr 10
New

Hourly Weather History & Observations

Time (CDT) Temp. Dew Point Humidity Pressure Visibility Wind Dir Wind Speed Gust Speed Precip Events Conditions
12:58 AM 54.0 °F 48.0 °F 80% 30.13 in 10.0 mi SW 6.9 mph - N/A   Clear
1:58 AM 51.1 °F 46.9 °F 86% 30.12 in 10.0 mi SW 3.5 mph - N/A   Clear
2:58 AM 53.1 °F 48.9 °F 86% 30.10 in 10.0 mi SW 4.6 mph - N/A   Clear
3:58 AM 50.0 °F 48.0 °F 93% 30.09 in 10.0 mi SW 3.5 mph - N/A   Clear
4:58 AM 46.9 °F 45.0 °F 93% 30.10 in 9.0 mi Calm Calm - N/A   Clear
5:11 AM 44.6 °F 42.8 °F 93% 30.11 in 2.5 mi Calm Calm - N/A   Partly Cloudy
5:15 AM 44.6 °F 42.8 °F 93% 30.10 in 1.0 mi Calm Calm - N/A   Mist
5:19 AM 44.6 °F 42.8 °F 93% 30.11 in 0.5 mi Calm Calm - N/A Fog Fog
5:35 AM 44.6 °F 42.8 °F 93% 30.11 in 1.2 mi Calm Calm - N/A   Mostly Cloudy
5:46 AM 44.6 °F 42.8 °F 93% 30.11 in 2.0 mi Calm Calm - N/A   Scattered Clouds
5:51 AM 44.6 °F 42.8 °F 93% 30.11 in 4.0 mi Calm Calm - N/A   Scattered Clouds
5:56 AM 44.6 °F 42.8 °F 93% 30.11 in 2.5 mi Calm Calm - N/A   Scattered Clouds
5:58 AM 45.0 °F 42.1 °F 90% 30.11 in 2.5 mi Calm Calm - N/A   Scattered Clouds
6:14 AM 44.6 °F 41.0 °F 87% 30.11 in 1.0 mi Calm Calm - N/A   Mist
6:18 AM 44.6 °F 41.0 °F 87% 30.12 in 0.8 mi Calm Calm - N/A   Mist
6:25 AM 44.6 °F 42.8 °F 93% 30.12 in 1.8 mi Calm Calm - N/A   Mostly Cloudy
6:31 AM 46.4 °F 42.8 °F 87% 30.12 in 2.5 mi Calm Calm - N/A   Mostly Cloudy
6:43 AM 44.6 °F 42.8 °F 93% 30.12 in 1.5 mi Calm Calm - N/A   Mostly Cloudy
6:49 AM 44.6 °F 42.8 °F 93% 30.12 in 0.2 mi Calm Calm - N/A Fog Fog
6:58 AM 44.1 °F 42.1 °F 93% 30.12 in 0.2 mi Calm Calm - N/A Fog Fog
7:40 AM 48.2 °F 46.4 °F 93% 30.13 in 1.2 mi Calm Calm - N/A   Partly Cloudy
7:46 AM 50.0 °F 48.2 °F 94% 30.13 in 2.5 mi SW 3.5 mph - N/A   Partly Cloudy
7:51 AM 50.0 °F 48.2 °F 94% 30.13 in 4.0 mi SSW 3.5 mph - N/A   Partly Cloudy
7:58 AM 51.1 °F 50.0 °F 96% 30.13 in 6.0 mi Calm Calm - N/A   Clear
8:58 AM 61.0 °F 53.1 °F 75% 30.14 in 10.0 mi Variable 5.8 mph - N/A   Clear
9:58 AM 66.9 °F 51.1 °F 57% 30.13 in 10.0 mi SW 8.1 mph - N/A   Clear
10:58 AM 70.0 °F 50.0 °F 49% 30.12 in 10.0 mi SW 10.4 mph 23.0 mph N/A   Clear
11:58 AM 73.0 °F 46.9 °F 39% 30.11 in 10.0 mi SSW 15.0 mph 20.7 mph N/A   Clear
12:58 PM 73.9 °F 48.0 °F 40% 30.09 in 10.0 mi SW 8.1 mph 20.7 mph N/A   Clear
1:58 PM 75.9 °F 50.0 °F 40% 30.06 in 10.0 mi SW 11.5 mph 19.6 mph N/A   Partly Cloudy
2:58 PM 77.0 °F 50.0 °F 39% 30.03 in 10.0 mi SSW 13.8 mph 21.9 mph N/A   Clear
3:58 PM 75.0 °F 48.9 °F 40% 30.01 in 10.0 mi SSW 15.0 mph - N/A   Partly Cloudy
4:58 PM 73.9 °F 48.0 °F 40% 30.00 in 10.0 mi SSW 20.7 mph 25.3 mph N/A   Clear
5:58 PM 71.1 °F 46.9 °F 42% 30.01 in 10.0 mi SW 12.7 mph 21.9 mph N/A   Clear
6:58 PM 68.0 °F 48.0 °F 49% 30.02 in 10.0 mi SW 6.9 mph - N/A   Clear
7:58 PM 62.1 °F 50.0 °F 65% 30.04 in 10.0 mi SSW 4.6 mph - N/A   Clear
8:58 PM 62.1 °F 53.1 °F 72% 30.05 in 10.0 mi SSW 6.9 mph - N/A   Clear
9:58 PM 59.0 °F 55.0 °F 87% 30.06 in 10.0 mi SSW 5.8 mph - N/A   Clear
10:58 PM 59.0 °F 55.0 °F 87% 30.06 in 10.0 mi Calm Calm - N/A   Clear
11:58 PM 57.9 °F 55.0 °F 90% 30.05 in 10.0 mi Calm Calm - N/A   Clear